[[{"header":{"parameterUnit":"m.s-1","parameterCategory":2,"la1":30.2991,"la2":30.254,"lo1":-89.0895,"lo2":-89.0444,"dy":0.0017,"dx":0.0017,"nx":28,"ny":28,"refTime":"2024-07-05T09:00:00:Z","depth":"0","parameterNumber":2,"parameterNumberName":"U-component_of_CURRENTS"},"data":[0,0,0,0,0,0,0,0,0,0,0,0,0,0,0,0,0,0,0,0,0,0,0,0,0,0,0,0,0,0,0,0,0,0,0,0,0,0,0,0,0,0,0,0,0,0,0,0,0,0,0,0,0,0,0,0,0,0,0.2797,0.2797,0,0.2816,0.2816,0.2816,0.2775,0.2774,0.2773,0.2772,0.277,0.2771,0.2772,0,0,0,0,0,0,0,0,0,0,0,0,0,0.2692,0.2694,0.2796,0.2797,0.2798,0.2816,0.2816,0.2816,0.2775,0.2774,0.2773,0.2772,0.277,0.2771,0.2772,0,0,0,0,0,0,0,0,0,0,0,0,0,0.2724,0.2695,0.2796,0.2783,0.2782,0.2816,0.2816,0.2816,0.2776,0.2774,0.2773,0.2771,0.277,0.2771,0.2772,0.2809,0,0,0.2776,0.2777,0,0,0,0,0,0,0,0,0.2722,0.2727,0.2784,0.2784,0.2783,0.2795,0.2779,0.2814,0.2776,0.2774,0.2772,0.2771,0.2781,0.2781,0.2782,0.2809,0.2809,0.2776,0.2777,0.2778,0.2778,0,0,0,0,0,0,0,0.272,0.2726,0.28,0.2785,0.2784,0.2765,0.2768,0.2785,0.2781,0.2774,0.2772,0.2781,0.2779,0.2781,0.2782,0.2809,0.2776,0.2777,0.2778,0.2779,0.2917,0.2919,0,0,0,0,0,0,0.273,0.2724,0.28,0.2801,0.2753,0.2769,0.2772,0.2789,0.2782,0.278,0.2782,0.2779,0.278,0.278,0.2782,0.2866,0.2778,0.2779,0.278,0.2914,0.2917,0.292,0,0,0,0,0,0,0.2727,0.2736,0.2799,0.2765,0.2773,0.2773,0.2793,0.2791,0.2798,0.2789,0.2786,0.2792,0.2779,0.278,0.2815,0.2864,0.2779,0.2781,0.291,0.2915,0.2919,0.3009,0,0,0,0,0,0,0.2724,0.2736,0.2751,0.2767,0.2775,0.2837,0.2795,0.2792,0.2807,0.2803,0.2797,0.2795,0.2777,0.2814,0.2817,0.2864,0.2782,0.2907,0.2912,0.2917,0.3002,0.3016,0.3027,0,0,0,0,0,0.2721,0.2751,0.2752,0.2761,0.2797,0.2839,0.2842,0.2833,0.281,0.283,0.2825,0.2795,0.285,0.2817,0.282,0.2869,0.2904,0.2911,0.2917,0.2997,0.3013,0.3027,0,0,0,0,0,0,0.2705,0.2751,0.2751,0.2792,0.2822,0.2834,0.285,0.2846,0.2857,0.285,0.2828,0.2828,0.2881,0.2868,0.2832,0.2928,0.2875,0.2883,0.2935,0.295,0.2963,0.3003,0.2783,0,0,0,0,0,0.2714,0.2753,0.2787,0.282,0.2837,0.2846,0.286,0.2861,0.2875,0.2876,0.2873,0.2881,0.2912,0.2923,0.2942,0.2991,0.3066,0.3028,0.3041,0.3052,0.309,0.3259,0.3291,0.2942,0.2942,0.2942,0,0,0.2715,0.2747,0.2765,0.282,0.2835,0.2879,0.285,0.2885,0.2917,0.2878,0.2914,0.2925,0.2937,0.2993,0.3016,0.2986,0.3193,0.306,0.3068,0.3102,0.3269,0.3303,0.3334,0.2946,0.2945,0.2945,0,0,0.2754,0.2768,0.2822,0.2852,0.2898,0.2907,0.2924,0.2951,0.2958,0.3003,0.2992,0.3049,0.3061,0.3104,0.3121,0.3224,0.3256,0.3211,0.3304,0.3467,0.3498,0.3526,0.3676,0.3717,0.3214,0.3214,0.3214,0,0.276,0.2822,0.2842,0.29,0.2923,0.2925,0.2978,0.2997,0.3031,0.3056,0.3026,0.3125,0.313,0.3238,0.327,0.3256,0.3346,0.3238,0.3487,0.3516,0.3544,0.369,0.3734,0.3219,0.3219,0.3218,0.3218,0,0.2853,0.2886,0.2917,0.2989,0.3019,0.3062,0.3092,0.312,0.3121,0.3148,0.3245,0.3278,0.334,0.3355,0.334,0.3527,0.3529,0.3486,0.345,0.3585,0.373,0.3774,0.3226,0.3225,0.3223,0.3222,0,0,0.2914,0.2973,0.2983,0.3002,0.3064,0.3093,0.3152,0.3217,0.3261,0.3314,0.3408,0.3486,0.351,0.3538,0.3547,0.3688,0.3953,0.3672,0.3678,0.3825,0.4328,0.4274,0.4316,0.3954,0.3962,0.3968,0.4356,0,0.2983,0.3073,0.3094,0.3155,0.3193,0.3203,0.3252,0.3305,0.3347,0.3436,0.352,0.3609,0.3575,0.3623,0.3765,0.3907,0.4072,0.3853,0.4173,0.4184,0.4123,0.4367,0.4245,0.4576,0.4399,0.4406,0.4411,0,0.3084,0.3118,0.3192,0.3212,0.3232,0.3266,0.3331,0.338,0.3499,0.3542,0.3663,0.372,0.3936,0.3879,0.4242,0.4103,0.424,0.4349,0.4365,0.432,0.4213,0.4412,0.4662,0.4503,0.4479,0.4474,0.4469,0,0.3123,0.3182,0.3227,0.3243,0.3285,0.3307,0.3329,0.3415,0.3478,0.3633,0.3731,0.393,0.4087,0.4291,0.4491,0.44,0.4898,0.4788,0.4881,0.4877,0.4842,0.4821,0.4982,0.5086,0.5085,0.5084,0.5083,0,0.3197,0.3229,0.3234,0.3261,0.3297,0.3318,0.3392,0.3435,0.3562,0.3696,0.3794,0.3982,0.4209,0.4477,0.4611,0.4914,0.5008,0.4986,0.501,0.4866,0.4844,0.475,0.462,0.5099,0.5096,0.5093,0.509,0,0.3265,0.3264,0.3311,0.3328,0.332,0.3355,0.3412,0.3495,0.3588,0.3786,0.3858,0.4124,0.448,0.4689,0.5071,0.5098,0.5219,0.5418,0.5225,0.5217,0.507,0.4947,0.4987,0.4846,0.5603,0.5604,0.5605,0,0.3337,0.3367,0.3359,0.338,0.3389,0.3421,0.3466,0.3511,0.3627,0.389,0.4033,0.4384,0.4648,0.5151,0.5304,0.5571,0.5354,0.5562,0.5352,0.5132,0.5015,0.474,0.4595,0.5362,0.5361,0.5361,0.536,0,0.3492,0.3471,0.3499,0.3515,0.3539,0.3556,0.3624,0.3687,0.3809,0.3976,0.4273,0.4484,0.4927,0.5163,0.5445,0.5564,0.5258,0.5551,0.5412,0.4944,0.4578,0.4426,0.5014,0.5354,0.5355,0.5355,0.5355,0.5356,0.3625,0.3657,0.3677,0.368,0.3705,0.3714,0.3729,0.3839,0.3975,0.4182,0.4394,0.4665,0.4954,0.5339,0.5397,0.5357,0.5261,0.5253,0.5168,0.4943,0.4659,0.5219,0.5496,0.5497,0.5498,0.5499,0.55,0,0.3776,0.379,0.3847,0.3833,0.3864,0.3821,0.3869,0.3883,0.4024,0.4219,0.4426,0.4727,0.4924,0.5074,0.5141,0.4998,0.4739,0.488,0.4481,0.439,0.5028,0.4864,0.4907,0.4907,0.4907,0.4907,0.4907,0.4907,0.3866,0.3928,0.3914,0.3974,0.3963,0.3939,0.3932,0.3945,0.4035,0.4175,0.4315,0.4474,0.4686,0.4824,0.4714,0.4624,0.4235,0.4114,0.4023,0.4473,0.4498,0.4522,0.434,0.4273,0.4272,0.3255,0.3247,0.3241]},{"header":{"parameterUnit":"m.s-1","parameterCategory":2,"la1":30.2991,"la2":30.254,"lo1":-89.0895,"lo2":-89.0444,"dy":0.0017,"dx":0.0017,"nx":28,"ny":28,"refTime":"2024-07-05T09:00:00:Z","depth":"0","parameterNumber":3,"parameterNumberName":"V-component_of_CURRENTS"},"data":[0,0,0,0,0,0,0,0,0,0,0,0,0,0,0,0,0,0,0,0,0,0,0,0,0,0,0,0,0,0,0,0,0,0,0,0,0,0,0,0,0,0,0,0,0,0,0,0,0,0,0,0,0,0,0,0,0,0,-0.0862,-0.0863,0,-0.0909,-0.091,-0.091,-0.0944,-0.0944,-0.0944,-0.0944,-0.1058,-0.1061,-0.1064,0,0,0,0,0,0,0,0,0,0,0,0,0,-0.085,-0.085,-0.0862,-0.0863,-0.0863,-0.0909,-0.091,-0.0911,-0.0944,-0.0944,-0.0944,-0.0944,-0.1057,-0.1061,-0.1065,0,0,0,0,0,0,0,0,0,0,0,0,0,-0.0874,-0.085,-0.0862,-0.0883,-0.0886,-0.0909,-0.091,-0.0911,-0.0944,-0.0944,-0.0944,-0.0944,-0.1056,-0.1061,-0.1065,-0.1091,0,0,-0.1079,-0.1081,0,0,0,0,0,0,0,0,-0.0873,-0.0875,-0.088,-0.0882,-0.0884,-0.0919,-0.0947,-0.0974,-0.0944,-0.0924,-0.0944,-0.0944,-0.1016,-0.1024,-0.1035,-0.1096,-0.1101,-0.1079,-0.1082,-0.1084,-0.1085,0,0,0,0,0,0,0,-0.0871,-0.0873,-0.0883,-0.088,-0.0883,-0.0907,-0.091,-0.0953,-0.0972,-0.0926,-0.0928,-0.093,-0.1019,-0.1031,-0.1038,-0.1103,-0.1079,-0.1083,-0.1086,-0.1087,-0.1129,-0.1127,0,0,0,0,0,0,-0.0858,-0.0871,-0.0882,-0.0884,-0.0876,-0.0907,-0.0911,-0.091,-0.097,-0.0979,-0.0929,-0.0931,-0.1023,-0.1033,-0.1042,-0.1,-0.1084,-0.1088,-0.109,-0.113,-0.1128,-0.1127,0,0,0,0,0,0,-0.0857,-0.0858,-0.088,-0.0877,-0.0881,-0.0906,-0.0905,-0.091,-0.0922,-0.0972,-0.0982,-0.0935,-0.1023,-0.1036,-0.1063,-0.1007,-0.109,-0.1094,-0.1132,-0.113,-0.1127,-0.0964,0,0,0,0,0,0,-0.0857,-0.0858,-0.0855,-0.0876,-0.0881,-0.0897,-0.0905,-0.0911,-0.0921,-0.0924,-0.098,-0.0991,-0.1024,-0.1056,-0.1068,-0.1015,-0.1097,-0.1134,-0.1131,-0.1128,-0.0971,-0.0956,-0.0943,0,0,0,0,0,-0.0856,-0.0856,-0.0855,-0.0856,-0.0876,-0.0897,-0.0902,-0.0922,-0.0921,-0.0932,-0.0951,-0.0989,-0.1045,-0.1059,-0.1073,-0.102,-0.1136,-0.1132,-0.1128,-0.0977,-0.0959,-0.0943,0,0,0,0,0,0,-0.0848,-0.086,-0.0859,-0.0861,-0.0877,-0.0902,-0.0911,-0.0919,-0.0942,-0.0941,-0.0983,-0.0996,-0.0994,-0.104,-0.1054,-0.1024,-0.1091,-0.109,-0.0971,-0.0955,-0.0941,-0.0844,-0.1101,0,0,0,0,0,-0.0843,-0.0848,-0.0861,-0.0863,-0.0868,-0.0887,-0.0897,-0.0906,-0.0927,-0.0937,-0.097,-0.0993,-0.099,-0.1,-0.103,-0.1026,-0.099,-0.0998,-0.0983,-0.0971,-0.0902,-0.0757,-0.0721,-0.1115,-0.1115,-0.1115,0,0,-0.0839,-0.0846,-0.0848,-0.0862,-0.0874,-0.0869,-0.0894,-0.0906,-0.0882,-0.0947,-0.0938,-0.0959,-0.0982,-0.0962,-0.0964,-0.0992,-0.086,-0.0967,-0.0955,-0.0891,-0.0749,-0.071,-0.0675,-0.1112,-0.1113,-0.1113,0,0,-0.0837,-0.084,-0.0844,-0.0849,-0.0862,-0.0864,-0.0863,-0.0884,-0.0875,-0.0881,-0.0885,-0.0843,-0.0918,-0.0857,-0.0848,-0.0774,-0.0795,-0.0823,-0.0662,-0.0524,-0.0488,-0.0456,-0.043,-0.0396,-0.0807,-0.0807,-0.0807,0,-0.083,-0.0821,-0.0849,-0.0847,-0.0823,-0.0854,-0.0825,-0.0829,-0.0851,-0.0787,-0.0868,-0.0789,-0.0835,-0.0683,-0.0665,-0.0729,-0.0703,-0.0723,-0.0496,-0.0463,-0.0433,-0.0414,-0.0378,-0.0799,-0.08,-0.08,-0.0801,0,-0.0826,-0.0809,-0.081,-0.08,-0.0789,-0.0773,-0.0762,-0.0732,-0.0729,-0.0701,-0.0587,-0.061,-0.0529,-0.0554,-0.0599,-0.039,-0.0464,-0.0497,-0.0522,-0.0381,-0.0375,-0.034,-0.0787,-0.079,-0.0792,-0.0794,0,0,-0.0809,-0.0803,-0.0799,-0.0746,-0.0744,-0.0713,-0.0653,-0.0557,-0.0437,-0.0462,-0.028,-0.0271,-0.0238,-0.0219,-0.0236,-0.0128,0.0055,-0.022,-0.0216,-0.0164,0.0293,0.019,0.0215,0.0065,0.0074,0.0081,0.0186,0,-0.0779,-0.074,-0.0743,-0.0655,-0.061,-0.0572,-0.0492,-0.0405,-0.034,-0.0192,-0.0121,-0.001,-0.0126,-0.0058,0.0044,0.0079,0.0163,0.0025,0.0125,0.0127,0.0049,0.0261,0.0216,0.0307,0.0219,0.0225,0.0229,0,-0.0742,-0.0715,-0.0635,-0.0504,-0.0475,-0.0423,-0.0206,-0.0145,0.0046,0.0107,0.0264,0.0294,0.0483,0.0336,0.0522,0.0435,0.0389,0.0379,0.0383,0.028,0.0095,0.0164,0.0371,0.0059,0.028,0.0276,0.0273,0,-0.0654,-0.0599,-0.051,-0.0482,-0.0379,-0.0279,-0.0204,-0.0031,0.0103,0.0327,0.047,0.0643,0.0773,0.0804,0.0756,0.0664,0.0924,0.0789,0.0648,0.0633,0.062,0.0592,0.0585,0.0934,0.0933,0.0933,0.0933,0,-0.0566,-0.0475,-0.0458,-0.0398,-0.0233,-0.0194,0.0029,0.014,0.0349,0.0583,0.064,0.088,0.0908,0.1029,0.0916,0.0918,0.1056,0.0757,0.0717,0.0657,0.0633,0.0373,0.0205,0.0937,0.0936,0.0935,0.0935,0,-0.0419,-0.0434,-0.0311,-0.0223,-0.0184,-0.0054,0.0138,0.0322,0.0475,0.0798,0.0888,0.1129,0.1302,0.1264,0.1339,0.1147,0.0974,0.1059,0.0926,0.087,0.0393,0.0235,0.0289,0.0176,0.0945,0.0944,0.0943,0,-0.0305,-0.0253,-0.0183,-0.0113,-0.0059,0.0098,0.0236,0.0382,0.0584,0.0972,0.1169,0.1418,0.166,0.169,0.1449,0.1283,0.1008,0.1017,0.085,0.0444,0.024,0.0141,0.0033,0.0852,0.085,0.0849,0.0848,0,-0.0077,-0.009,-0.0021,0.0076,0.02,0.0363,0.0558,0.0724,0.0966,0.1238,0.1642,0.1865,0.1912,0.1829,0.1536,0.1335,0.0792,0.098,0.0674,0.0301,0.0098,-0.0061,0.0596,0.0838,0.0839,0.0839,0.084,0.084,0.0112,0.0168,0.0199,0.0314,0.0438,0.0639,0.0814,0.1043,0.1365,0.1802,0.1968,0.2341,0.2068,0.1726,0.1407,0.0668,0.0724,0.0395,0.0271,0.0232,0.0053,0.0625,0.0741,0.0741,0.0741,0.0742,0.0742,0,0.0351,0.0352,0.0453,0.0575,0.074,0.0762,0.1054,0.125,0.163,0.2032,0.2374,0.2495,0.2048,0.1528,0.061,0.006,-0.0131,-0.0253,-0.0403,-0.0453,0.0167,0.0082,-0.0074,-0.0074,-0.0074,-0.0074,-0.0073,-0.0073,0.0477,0.0568,0.0563,0.082,0.0922,0.1178,0.1348,0.1626,0.1924,0.2438,0.2735,0.2958,0.2525,0.0853,-0.0362,-0.065,-0.1013,-0.1062,-0.1223,-0.0878,-0.0829,-0.0782,-0.0902,-0.1262,-0.1263,-0.1795,-0.1801,-0.1806]}],[{"header":{"parameterUnit":"m.s-1","parameterCategory":2,"la1":30.2991,"la2":30.254,"lo1":-89.0895,"lo2":-89.0444,"dy":0.0017,"dx":0.0017,"nx":28,"ny":28,"refTime":"2024-07-05T09:00:00:Z","depth":"2","parameterNumber":2,"parameterNumberName":"U-component_of_CURRENTS"},"data":[0,0,0,0,0,0,0,0,0,0,0,0,0,0,0,0,0,0,0,0,0,0,0,0,0,0,0,0,0,0,0,0,0,0,0,0,0,0,0,0,0,0,0,0,0,0,0,0,0,0,0,0,0,0,0,0,0,0,0.1432,0.1433,0,0.1489,0.1489,0.149,0.1489,0.1489,0.1488,0.1488,0.1522,0.1524,0.1525,0,0,0,0,0,0,0,0,0,0,0,0,0,0.1331,0.1333,0.1432,0.1433,0.1434,0.1488,0.1489,0.149,0.149,0.1489,0.1488,0.1487,0.1522,0.1523,0.1525,0,0,0,0,0,0,0,0,0,0,0,0,0,0.1378,0.1334,0.1432,0.1442,0.1443,0.1488,0.1489,0.149,0.149,0.1489,0.1488,0.1487,0.1521,0.1523,0.1525,0.1556,0,0,0.1532,0.1533,0,0,0,0,0,0,0,0,0.1376,0.1382,0.144,0.1441,0.1443,0.1483,0.1466,0.1512,0.149,0.147,0.1488,0.1487,0.1509,0.1512,0.1522,0.1558,0.1559,0.1532,0.1534,0.1535,0.1535,0,0,0,0,0,0,0,0.1372,0.138,0.1453,0.1441,0.1443,0.1446,0.1451,0.1475,0.1492,0.1472,0.1472,0.1482,0.1509,0.152,0.1523,0.156,0.1532,0.1534,0.1536,0.1536,0.1665,0.1667,0,0,0,0,0,0,0.137,0.1377,0.1451,0.1455,0.1409,0.1448,0.1454,0.1469,0.1492,0.1495,0.1482,0.1482,0.1517,0.152,0.1524,0.1587,0.1535,0.1537,0.1538,0.1663,0.1666,0.1668,0,0,0,0,0,0,0.1368,0.1377,0.1449,0.1418,0.1427,0.1451,0.1468,0.1471,0.1487,0.1501,0.1503,0.1496,0.1516,0.1521,0.1564,0.1587,0.1538,0.154,0.1661,0.1664,0.1667,0.1696,0,0,0,0,0,0,0.1365,0.1375,0.1388,0.1418,0.1429,0.149,0.1469,0.1473,0.1495,0.1494,0.1513,0.1515,0.1516,0.1561,0.1566,0.1589,0.1541,0.1658,0.1662,0.1666,0.1692,0.1699,0.1706,0,0,0,0,0,0.1361,0.1387,0.1389,0.1398,0.1445,0.1492,0.1498,0.151,0.1496,0.1517,0.1531,0.1515,0.1589,0.1564,0.157,0.1594,0.1656,0.1661,0.1666,0.1689,0.1698,0.1705,0,0,0,0,0,0,0.1352,0.1391,0.1393,0.1429,0.1463,0.1492,0.1516,0.1517,0.1544,0.1543,0.1542,0.1547,0.1596,0.1598,0.157,0.1647,0.1621,0.1627,0.1636,0.1645,0.1652,0.1675,0.1543,0,0,0,0,0,0.1356,0.1388,0.142,0.1453,0.147,0.1492,0.1511,0.1521,0.1547,0.1557,0.1571,0.1592,0.1622,0.1634,0.1664,0.1702,0.1773,0.1724,0.1731,0.1737,0.1763,0.1912,0.1935,0.1684,0.1684,0.1684,0,0,0.1362,0.1389,0.1406,0.1454,0.1478,0.1507,0.1502,0.1542,0.1563,0.1559,0.1598,0.1621,0.1641,0.1688,0.1709,0.1689,0.1844,0.1743,0.1747,0.1771,0.192,0.1945,0.1967,0.1687,0.1687,0.1686,0,0,0.1387,0.1415,0.1443,0.1472,0.1515,0.1532,0.1544,0.1582,0.1599,0.1643,0.1647,0.1691,0.1727,0.1752,0.1764,0.1832,0.1882,0.1836,0.1881,0.2024,0.2047,0.2067,0.2183,0.2214,0.1831,0.1831,0.1831,0,0.1389,0.1425,0.146,0.1491,0.1512,0.1541,0.1566,0.1597,0.1643,0.1672,0.1662,0.1762,0.176,0.1833,0.1847,0.1846,0.1939,0.1839,0.2035,0.2057,0.2078,0.2191,0.2225,0.1833,0.1833,0.1832,0.1832,0,0.1428,0.1454,0.1479,0.152,0.1552,0.1587,0.1625,0.1665,0.1684,0.1717,0.1808,0.1838,0.1906,0.19,0.1886,0.2022,0.2045,0.2032,0.2013,0.2105,0.2218,0.2253,0.1836,0.1835,0.1834,0.1834,0,0,0.1433,0.1489,0.1496,0.1509,0.1566,0.1594,0.1648,0.1709,0.1767,0.182,0.1908,0.1949,0.1998,0.202,0.203,0.2125,0.2319,0.2141,0.2147,0.2254,0.2653,0.2514,0.2538,0.236,0.2367,0.2372,0.2672,0,0.1446,0.1482,0.1519,0.1558,0.1576,0.1626,0.1678,0.1742,0.1813,0.1915,0.1974,0.2068,0.2036,0.209,0.2189,0.2295,0.2415,0.224,0.2551,0.256,0.2424,0.2575,0.2327,0.2561,0.2705,0.2711,0.2715,0,0.1465,0.1484,0.151,0.1567,0.1584,0.1622,0.1724,0.1783,0.1926,0.1997,0.2121,0.2188,0.2332,0.2296,0.2569,0.2473,0.2582,0.2652,0.2666,0.2555,0.2485,0.2495,0.2618,0.2773,0.2769,0.2764,0.2761,0,0.1424,0.1481,0.1494,0.1511,0.1583,0.1622,0.1679,0.1808,0.19,0.208,0.2195,0.2359,0.2493,0.2651,0.2775,0.272,0.3076,0.3018,0.3003,0.2994,0.285,0.2816,0.3252,0.3252,0.3251,0.325,0.3249,0,0.1409,0.1423,0.148,0.1483,0.1548,0.1604,0.172,0.181,0.1984,0.2139,0.2256,0.2428,0.2604,0.2797,0.2879,0.3052,0.3183,0.3062,0.3083,0.2848,0.2812,0.3036,0.3007,0.3261,0.3259,0.3257,0.3255,0,0.136,0.1387,0.1417,0.1488,0.1527,0.1577,0.1749,0.1852,0.2014,0.2235,0.2308,0.256,0.2802,0.2937,0.3208,0.32,0.3346,0.3371,0.3056,0.3031,0.3147,0.3116,0.3419,0.3418,0.3416,0.3415,0.3413,0,0.1343,0.134,0.1418,0.1479,0.152,0.1619,0.1714,0.1859,0.199,0.2318,0.2432,0.2713,0.2889,0.3189,0.3227,0.3357,0.3401,0.3183,0.3003,0.3185,0.3177,0.3148,0.312,0.2846,0.2841,0.2836,0.2832,0,0.1321,0.1341,0.138,0.1484,0.1577,0.1674,0.1815,0.1903,0.2113,0.2296,0.2565,0.2719,0.2986,0.2999,0.311,0.3132,0.3118,0.3088,0.3462,0.279,0.2655,0.2641,0.2632,0.2791,0.2795,0.2798,0.28,0.2802,0.134,0.1355,0.1418,0.1508,0.1619,0.1709,0.1758,0.1919,0.2076,0.228,0.2492,0.2643,0.2739,0.2775,0.2771,0.2769,0.2948,0.2824,0.2836,0.2854,0.2681,0.2545,0.263,0.2633,0.2636,0.2638,0.264,0,0.1345,0.1372,0.1458,0.1537,0.1608,0.1693,0.1818,0.1838,0.1963,0.2166,0.2313,0.2191,0.2261,0.2386,0.233,0.2346,0.2304,0.2257,0.2184,0.2227,0.2265,0.2059,0.1846,0.1844,0.1841,0.1839,0,0,0.1359,0.1385,0.1387,0.1478,0.1567,0.1617,0.1656,0.1706,0.181,0.1819,0.1887,0.2083,0.2288,0.201,0.1997,0.193,0.2054,0.1858,0.2496,0.2451,0.2485,0.2595,0.2326,0,0,0,0,0]},{"header":{"parameterUnit":"m.s-1","parameterCategory":2,"la1":30.2991,"la2":30.254,"lo1":-89.0895,"lo2":-89.0444,"dy":0.0017,"dx":0.0017,"nx":28,"ny":28,"refTime":"2024-07-05T09:00:00:Z","depth":"2","parameterNumber":3,"parameterNumberName":"V-component_of_CURRENTS"},"data":[0,0,0,0,0,0,0,0,0,0,0,0,0,0,0,0,0,0,0,0,0,0,0,0,0,0,0,0,0,0,0,0,0,0,0,0,0,0,0,0,0,0,0,0,0,0,0,0,0,0,0,0,0,0,0,0,0,0,-0.0525,-0.0525,0,-0.0524,-0.0524,-0.0524,-0.0564,-0.0566,-0.0567,-0.0568,-0.0557,-0.0556,-0.0554,0,0,0,0,0,0,0,0,0,0,0,0,0,-0.0506,-0.0506,-0.0525,-0.0525,-0.0525,-0.0524,-0.0524,-0.0524,-0.0564,-0.0566,-0.0567,-0.0569,-0.0558,-0.0556,-0.0554,0,0,0,0,0,0,0,0,0,0,0,0,0,-0.0508,-0.0506,-0.0525,-0.0547,-0.0549,-0.0524,-0.0524,-0.0524,-0.0564,-0.0566,-0.0568,-0.057,-0.0558,-0.0556,-0.0554,-0.05,0,0,-0.0547,-0.0546,0,0,0,0,0,0,0,0,-0.0508,-0.0509,-0.0544,-0.0546,-0.0548,-0.0549,-0.0514,-0.0516,-0.0563,-0.0555,-0.0568,-0.057,-0.0554,-0.0552,-0.0544,-0.05,-0.0499,-0.0547,-0.0545,-0.0544,-0.0544,0,0,0,0,0,0,0,-0.0508,-0.0509,-0.0522,-0.0544,-0.0546,-0.0539,-0.0542,-0.0514,-0.0541,-0.0556,-0.056,-0.0563,-0.0555,-0.0546,-0.0544,-0.0499,-0.0547,-0.0545,-0.0543,-0.0542,-0.0484,-0.0484,0,0,0,0,0,0,-0.0514,-0.0509,-0.0522,-0.0522,-0.0536,-0.0538,-0.0541,-0.0544,-0.0542,-0.0544,-0.0562,-0.0565,-0.0549,-0.0546,-0.0544,-0.0551,-0.0544,-0.0542,-0.0541,-0.0484,-0.0484,-0.0484,0,0,0,0,0,0,-0.0514,-0.0515,-0.0522,-0.0518,-0.0518,-0.0537,-0.054,-0.0543,-0.0546,-0.0547,-0.0549,-0.0563,-0.055,-0.0547,-0.0536,-0.0549,-0.0541,-0.0539,-0.0485,-0.0484,-0.0484,-0.0521,0,0,0,0,0,0,-0.0513,-0.0515,-0.0514,-0.0518,-0.0519,-0.0506,-0.0538,-0.0542,-0.0546,-0.055,-0.0547,-0.0548,-0.0551,-0.0539,-0.0534,-0.0546,-0.0537,-0.0485,-0.0484,-0.0484,-0.052,-0.0522,-0.0524,0,0,0,0,0,-0.0512,-0.0495,-0.0514,-0.0515,-0.0519,-0.0506,-0.0504,-0.0522,-0.0544,-0.0534,-0.0546,-0.0549,-0.0534,-0.0537,-0.053,-0.0542,-0.0485,-0.0485,-0.0484,-0.0519,-0.0522,-0.0524,0,0,0,0,0,0,-0.048,-0.0498,-0.0519,-0.0508,-0.0511,-0.0514,-0.0503,-0.0519,-0.0518,-0.0527,-0.0536,-0.0536,-0.0536,-0.0522,-0.0526,-0.0523,-0.0512,-0.0511,-0.0542,-0.0544,-0.0545,-0.0521,-0.0535,0,0,0,0,0,-0.0474,-0.0474,-0.0488,-0.048,-0.048,-0.0493,-0.049,-0.0503,-0.0506,-0.0509,-0.0514,-0.0518,-0.0523,-0.0522,-0.0514,-0.0498,-0.0482,-0.0503,-0.0505,-0.0507,-0.0481,-0.0489,-0.049,-0.0483,-0.0483,-0.0483,0,0,-0.046,-0.0471,-0.047,-0.0474,-0.0478,-0.0472,-0.0495,-0.0487,-0.0494,-0.0504,-0.0508,-0.0517,-0.0519,-0.052,-0.0518,-0.0514,-0.05,-0.0506,-0.0508,-0.0481,-0.0489,-0.0489,-0.049,-0.0482,-0.0482,-0.0482,0,0,-0.0426,-0.044,-0.0429,-0.0431,-0.044,-0.0449,-0.0449,-0.0455,-0.047,-0.047,-0.0495,-0.0513,-0.0499,-0.0521,-0.0528,-0.0526,-0.051,-0.0522,-0.0512,-0.0522,-0.0522,-0.0523,-0.0506,-0.0505,-0.0525,-0.0525,-0.0525,0,-0.0412,-0.0405,-0.042,-0.0412,-0.0413,-0.0441,-0.0428,-0.0441,-0.0448,-0.0451,-0.0474,-0.0482,-0.0505,-0.0514,-0.0532,-0.0533,-0.0515,-0.0512,-0.0525,-0.0525,-0.0525,-0.0508,-0.0506,-0.0527,-0.0527,-0.0526,-0.0526,0,-0.0373,-0.0372,-0.0361,-0.0373,-0.0371,-0.036,-0.0387,-0.0388,-0.0416,-0.0433,-0.0444,-0.0476,-0.0473,-0.0507,-0.0524,-0.0533,-0.0514,-0.053,-0.0524,-0.0528,-0.051,-0.0507,-0.0529,-0.0529,-0.0528,-0.0528,0,0,-0.0346,-0.0336,-0.034,-0.0328,-0.0351,-0.0335,-0.0353,-0.036,-0.0339,-0.039,-0.0372,-0.0441,-0.0447,-0.0453,-0.0483,-0.0513,-0.053,-0.0518,-0.0518,-0.0506,-0.0519,-0.0568,-0.0569,-0.0548,-0.0547,-0.0547,-0.0508,0,-0.0319,-0.0287,-0.0301,-0.0275,-0.0255,-0.0284,-0.0279,-0.0293,-0.0307,-0.029,-0.0362,-0.0347,-0.043,-0.0414,-0.0467,-0.049,-0.0522,-0.0537,-0.0509,-0.0507,-0.0556,-0.0569,-0.0555,-0.0524,-0.0505,-0.0505,-0.0504,0,-0.0293,-0.027,-0.0236,-0.0203,-0.0196,-0.0182,-0.0158,-0.0151,-0.0159,-0.0161,-0.0185,-0.0218,-0.0263,-0.0331,-0.0398,-0.0394,-0.0454,-0.0499,-0.0499,-0.0522,-0.0552,-0.0514,-0.052,-0.05,-0.05,-0.05,-0.0501,0,-0.0261,-0.023,-0.0195,-0.0189,-0.0157,-0.0136,-0.0116,-0.0108,-0.0053,-0.0057,-0.0001,-0.0087,-0.0069,-0.0181,-0.0302,-0.0331,-0.0367,-0.0418,-0.0522,-0.0524,-0.0494,-0.0495,-0.0474,-0.0474,-0.0474,-0.0474,-0.0474,0,-0.0233,-0.0211,-0.0163,-0.014,-0.0058,-0.0064,0.0031,0.0039,0.0103,0.0212,0.0095,0.0164,-0.0028,-0.0086,-0.0235,-0.0357,-0.0315,-0.0507,-0.0522,-0.0508,-0.0511,-0.0472,-0.0473,-0.0473,-0.0473,-0.0473,-0.0474,0,-0.0217,-0.02,-0.0133,-0.007,-0.0038,0.0028,0.0154,0.024,0.0283,0.0429,0.0445,0.0386,0.0273,0.0067,-0.0094,-0.0229,-0.0372,-0.0432,-0.0398,-0.0413,-0.0536,-0.0538,-0.0532,-0.0533,-0.0534,-0.0535,-0.0536,0,-0.0214,-0.0176,-0.0064,0.0007,0.0042,0.0151,0.0245,0.0323,0.0448,0.0583,0.0675,0.0586,0.0536,0.0253,-0.006,-0.0337,-0.0387,-0.0456,-0.0548,-0.0528,-0.0544,-0.0544,-0.0545,-0.0508,-0.0509,-0.0509,-0.051,0,-0.019,-0.0144,-0.0071,0.0082,0.0195,0.0352,0.0505,0.0644,0.0779,0.0892,0.1036,0.0994,0.0666,0.0339,-0.0086,-0.0272,-0.0427,-0.0477,-0.0436,-0.0518,-0.051,-0.0524,-0.0525,-0.0514,-0.0514,-0.0513,-0.0513,-0.0513,-0.0168,-0.0087,0.0027,0.0176,0.0322,0.0554,0.0728,0.0908,0.1123,0.1306,0.1239,0.1168,0.0782,0.0174,-0.0138,-0.0468,-0.0491,-0.0581,-0.0577,-0.0573,-0.06,-0.0597,-0.062,-0.062,-0.062,-0.062,-0.062,0,-0.0128,-0.0025,0.0115,0.033,0.0526,0.0594,0.0903,0.109,0.1371,0.1428,0.1465,0.1053,0.0661,0.0243,-0.0256,-0.0547,-0.0555,-0.0623,-0.0575,-0.0571,-0.0567,-0.0592,-0.061,-0.061,-0.0611,-0.0611,0,0,-0.01,0.0044,0.0142,0.0464,0.0638,0.0952,0.1161,0.1399,0.1528,0.1555,0.1465,0.1233,0.0759,0.0394,-0.0047,-0.0303,-0.0339,-0.0344,-0.0328,-0.0215,-0.0205,-0.0535,-0.0568,0,0,0,0,0]}],[{"header":{"parameterUnit":"m.s-1","parameterCategory":2,"la1":30.2991,"la2":30.254,"lo1":-89.0895,"lo2":-89.0444,"dy":0.0017,"dx":0.0017,"nx":28,"ny":28,"refTime":"2024-07-05T09:00:00:Z","depth":"4","parameterNumber":2,"parameterNumberName":"U-component_of_CURRENTS"},"data":[0,0,0,0,0,0,0,0,0,0,0,0,0,0,0,0,0,0,0,0,0,0,0,0,0,0,0,0,0,0,0,0,0,0,0,0,0,0,0,0,0,0,0,0,0,0,0,0,0,0,0,0,0,0,0,0,0,0,0.0598,0.0599,0,0.0679,0.0679,0.068,0.077,0.0771,0.0773,0.0774,0.0865,0.0865,0.0866,0,0,0,0,0,0,0,0,0,0,0,0,0,0.0462,0.0464,0.0597,0.0599,0.06,0.0679,0.068,0.068,0.0769,0.0771,0.0773,0.0775,0.0864,0.0865,0.0867,0,0,0,0,0,0,0,0,0,0,0,0,0,0.0528,0.0465,0.0597,0.0656,0.0662,0.0678,0.068,0.0681,0.0769,0.0771,0.0773,0.0776,0.0864,0.0865,0.0867,0.083,0,0,0.0871,0.0872,0,0,0,0,0,0,0,0,0.0524,0.0532,0.0646,0.0652,0.0659,0.0719,0.0665,0.0732,0.0768,0.0726,0.0774,0.0777,0.0816,0.0822,0.0828,0.0834,0.0838,0.0871,0.0872,0.0873,0.0873,0,0,0,0,0,0,0,0.0519,0.0529,0.0627,0.0647,0.0655,0.0658,0.067,0.0678,0.0755,0.0729,0.0737,0.0749,0.082,0.0827,0.0831,0.0839,0.0871,0.0873,0.0874,0.0874,0.0944,0.0945,0,0,0,0,0,0,0.0515,0.0525,0.0625,0.063,0.0598,0.0659,0.0673,0.0695,0.0755,0.0767,0.0747,0.0753,0.0823,0.0829,0.0835,0.0931,0.0873,0.0874,0.0875,0.0943,0.0944,0.0945,0,0,0,0,0,0,0.0512,0.0523,0.0621,0.058,0.0594,0.066,0.0684,0.0695,0.0723,0.0769,0.0781,0.0766,0.0825,0.0833,0.088,0.093,0.0875,0.0876,0.0942,0.0944,0.0945,0.1035,0,0,0,0,0,0,0.0508,0.0522,0.0535,0.0581,0.0596,0.0654,0.0682,0.0695,0.0727,0.0736,0.0788,0.0798,0.0828,0.0878,0.0882,0.0931,0.0877,0.0941,0.0943,0.0944,0.1031,0.104,0.1047,0,0,0,0,0,0.0503,0.0522,0.0535,0.0547,0.0613,0.0655,0.0663,0.0715,0.0726,0.0745,0.0789,0.0798,0.0892,0.088,0.0884,0.0935,0.094,0.0942,0.0944,0.1028,0.1038,0.1047,0,0,0,0,0,0,0.0475,0.0534,0.055,0.0587,0.0624,0.0671,0.0697,0.0712,0.0757,0.0778,0.0805,0.0819,0.0883,0.0879,0.0864,0.0957,0.0918,0.0921,0.098,0.099,0.0998,0.1043,0.0879,0,0,0,0,0,0.0469,0.0505,0.055,0.0583,0.0602,0.0641,0.0663,0.0701,0.0745,0.0767,0.0805,0.0845,0.0887,0.0915,0.0947,0.0984,0.0977,0.1018,0.1026,0.1033,0.1071,0.1057,0.1068,0.0953,0.0953,0.0953,0,0,0.0467,0.0506,0.0526,0.058,0.0614,0.065,0.0662,0.0713,0.0757,0.0767,0.0842,0.0872,0.09,0.0969,0.0995,0.0979,0.1065,0.1036,0.1043,0.1077,0.1061,0.1072,0.1082,0.0954,0.0954,0.0954,0,0,0.0481,0.0517,0.0546,0.058,0.0639,0.0669,0.0682,0.0739,0.0785,0.0843,0.0875,0.0932,0.098,0.1031,0.1054,0.1109,0.1104,0.1119,0.1207,0.1193,0.1203,0.1211,0.1232,0.1242,0.1127,0.1128,0.1128,0,0.0473,0.0522,0.0559,0.0596,0.0633,0.0676,0.0713,0.0759,0.083,0.0865,0.0884,0.0988,0.1014,0.11,0.1157,0.1133,0.1137,0.1172,0.1205,0.1213,0.122,0.1239,0.1249,0.1132,0.1132,0.1131,0.1131,0,0.0502,0.0547,0.0572,0.0636,0.0674,0.0722,0.0786,0.084,0.089,0.0928,0.1027,0.1083,0.1156,0.1169,0.1202,0.1281,0.1274,0.1212,0.1185,0.1238,0.1254,0.1262,0.1139,0.1137,0.1136,0.1135,0,0,0.0471,0.0571,0.0581,0.0626,0.0706,0.0746,0.0824,0.0897,0.0961,0.1036,0.1117,0.122,0.1267,0.13,0.1339,0.1358,0.143,0.1343,0.134,0.1375,0.1441,0.1401,0.1406,0.1377,0.1378,0.138,0.1437,0,0.0483,0.0557,0.0607,0.069,0.0734,0.0806,0.0875,0.0951,0.1027,0.1117,0.1186,0.1276,0.1309,0.1379,0.1412,0.1423,0.1456,0.1423,0.1377,0.1378,0.1342,0.1415,0.1385,0.1443,0.1445,0.1447,0.1448,0,0.0485,0.0544,0.062,0.0737,0.0763,0.0829,0.0957,0.1027,0.1141,0.1208,0.1313,0.1362,0.1476,0.1463,0.1534,0.1518,0.1522,0.1507,0.1506,0.145,0.1353,0.1374,0.1462,0.1461,0.146,0.1459,0.1458,0,0.0439,0.0553,0.0622,0.066,0.0789,0.0861,0.0941,0.1057,0.1126,0.1283,0.1348,0.1458,0.1543,0.1551,0.1597,0.1567,0.1636,0.155,0.1514,0.1511,0.1488,0.1477,0.1583,0.1583,0.1583,0.1583,0.1583,0,0.0425,0.0478,0.0624,0.0661,0.076,0.0868,0.0981,0.1078,0.1217,0.1299,0.1415,0.1505,0.1571,0.1623,0.1623,0.1632,0.1652,0.1572,0.153,0.1525,0.1519,0.1495,0.1483,0.1585,0.1585,0.1584,0.1584,0,0.0354,0.0443,0.0526,0.0684,0.0739,0.0817,0.0985,0.1067,0.1216,0.1338,0.1394,0.1549,0.1633,0.1679,0.1705,0.1666,0.1653,0.1642,0.17,0.1652,0.1531,0.1524,0.159,0.1589,0.1588,0.1588,0.1587,0,0.0323,0.0361,0.0516,0.0579,0.0662,0.0794,0.0878,0.1047,0.1135,0.1349,0.1398,0.1546,0.1636,0.1656,0.1702,0.1706,0.1678,0.167,0.1569,0.1584,0.1536,0.1529,0.1523,0.1586,0.1586,0.1586,0.1586,0,0.0258,0.0317,0.0384,0.0502,0.0613,0.0718,0.0866,0.0922,0.1124,0.125,0.1388,0.1466,0.1573,0.1619,0.1669,0.1648,0.1667,0.1662,0.1661,0.1566,0.158,0.1531,0.1526,0.1583,0.1584,0.1584,0.1584,0,0.0197,0.022,0.0314,0.0422,0.0544,0.0652,0.0731,0.0874,0.0976,0.1226,0.1262,0.1429,0.1558,0.1592,0.1618,0.1632,0.158,0.1505,0.151,0.1514,0.1465,0.147,0.1438,0,0,0,0,0,0.0142,0.0166,0.0241,0.0364,0.0487,0.0565,0.073,0.0819,0.1005,0.1074,0.1176,0.1276,0.1384,0.1459,0.1453,0.1561,0.1566,0.1547,0.1476,0.1571,0.1574,0.1525,0,0,0,0,0,0,0.0102,0.015,0.0197,0.0305,0.0386,0.051,0.0617,0.0741,0.0795,0.0985,0.1043,0.1187,0.1291,0.1362,0.1419,0.1443,0.1373,0.1645,0.1643,0.1569,0.1572,0.1574,0.1525,0,0,0,0,0]},{"header":{"parameterUnit":"m.s-1","parameterCategory":2,"la1":30.2991,"la2":30.254,"lo1":-89.0895,"lo2":-89.0444,"dy":0.0017,"dx":0.0017,"nx":28,"ny":28,"refTime":"2024-07-05T09:00:00:Z","depth":"4","parameterNumber":3,"parameterNumberName":"V-component_of_CURRENTS"},"data":[0,0,0,0,0,0,0,0,0,0,0,0,0,0,0,0,0,0,0,0,0,0,0,0,0,0,0,0,0,0,0,0,0,0,0,0,0,0,0,0,0,0,0,0,0,0,0,0,0,0,0,0,0,0,0,0,0,0,0.0288,0.0287,0,0.0208,0.0207,0.0206,0.0165,0.0165,0.0166,0.0166,0.0069,0.0066,0.0064,0,0,0,0,0,0,0,0,0,0,0,0,0,0.0342,0.0342,0.0288,0.0287,0.0286,0.0208,0.0207,0.0206,0.0165,0.0165,0.0166,0.0166,0.007,0.0067,0.0063,0,0,0,0,0,0,0,0,0,0,0,0,0,0.0295,0.0341,0.0288,0.0258,0.0255,0.0209,0.0207,0.0206,0.0165,0.0165,0.0166,0.0166,0.0071,0.0067,0.0063,0.0034,0,0,0.0051,0.0049,0,0,0,0,0,0,0,0,0.0297,0.0292,0.0263,0.026,0.0256,0.0199,0.0191,0.0148,0.0165,0.0197,0.0166,0.0166,0.0112,0.0104,0.0087,0.003,0.0026,0.005,0.0048,0.0046,0.0045,0,0,0,0,0,0,0,0.0301,0.0295,0.0254,0.0262,0.0258,0.0227,0.0221,0.0182,0.0153,0.0194,0.0192,0.0186,0.011,0.0091,0.0084,0.0024,0.005,0.0047,0.0044,0.0043,-0.0082,-0.0083,0,0,0,0,0,0,0.0317,0.0299,0.0257,0.0252,0.028,0.0226,0.0219,0.0215,0.0153,0.0145,0.0186,0.0184,0.0097,0.0089,0.0081,0.0051,0.0046,0.0042,0.004,-0.0081,-0.0082,-0.0083,0,0,0,0,0,0,0.0319,0.0315,0.026,0.0275,0.0266,0.0226,0.0221,0.0214,0.0197,0.0147,0.0138,0.0178,0.0097,0.0086,0.0042,0.0047,0.0041,0.0037,-0.008,-0.0081,-0.0082,-0.0013,0,0,0,0,0,0,0.0321,0.0316,0.0317,0.0276,0.0266,0.024,0.0221,0.0212,0.0194,0.0191,0.0137,0.0128,0.0097,0.0048,0.0038,0.0041,0.0034,-0.0079,-0.008,-0.0082,-0.0015,-0.0012,-0.001,0,0,0,0,0,0.0323,0.0326,0.0317,0.0312,0.027,0.024,0.0232,0.0202,0.0194,0.0187,0.0146,0.013,0.003,0.0044,0.0032,0.0035,-0.0078,-0.008,-0.0082,-0.0016,-0.0013,-0.001,0,0,0,0,0,0,0.0346,0.0321,0.0311,0.0305,0.0278,0.0234,0.0228,0.0206,0.0167,0.0168,0.0118,0.0106,0.0066,0.0035,0.0051,-0.001,-0.0026,-0.0031,0.0028,0.003,0.0032,0.0033,0.003,0,0,0,0,0,0.0354,0.0355,0.0319,0.0317,0.0307,0.0268,0.0253,0.0234,0.0196,0.018,0.0142,0.0095,0.0047,0.0028,-0.0019,-0.0048,-0.0097,-0.0057,-0.0055,-0.0052,-0.0063,-0.0139,-0.0144,-0.0089,-0.0089,-0.0089,0,0,0.0364,0.035,0.0351,0.0323,0.0302,0.0299,0.0259,0.0244,0.0241,0.0175,0.0158,0.01,0.0037,0.0001,-0.0019,-0.0021,-0.0093,-0.0055,-0.0052,-0.0064,-0.0142,-0.0147,-0.0152,-0.0091,-0.0091,-0.009,0,0,0.0395,0.0373,0.0389,0.0372,0.0348,0.0322,0.0321,0.028,0.0262,0.0233,0.0178,0.0119,0.0065,0.0012,-0.002,-0.0037,-0.0084,-0.0047,-0.0027,-0.0099,-0.0104,-0.0109,-0.0165,-0.0175,-0.0039,-0.0038,-0.0038,0,0.0407,0.0416,0.0386,0.0397,0.0385,0.0339,0.0347,0.0325,0.0275,0.0248,0.0241,0.0113,0.007,-0.0002,-0.0008,-0.003,-0.0077,-0.0023,-0.0095,-0.0101,-0.0107,-0.0163,-0.0176,-0.0035,-0.0036,-0.0036,-0.0036,0,0.0451,0.0455,0.0461,0.0461,0.0446,0.044,0.0409,0.0387,0.0358,0.0322,0.0246,0.0165,0.0081,0.0064,0.0026,-0.0046,-0.0067,-0.0085,-0.0093,-0.0108,-0.0167,-0.0181,-0.0031,-0.0032,-0.0033,-0.0034,0,0,0.0476,0.0489,0.0491,0.0492,0.0474,0.0459,0.0459,0.0419,0.0396,0.0344,0.0291,0.0204,0.0135,0.0089,0.0021,-0.0035,-0.011,-0.0073,-0.0078,-0.0114,-0.0266,-0.0224,-0.0236,-0.0139,-0.0142,-0.0144,-0.0284,0,0.0512,0.0542,0.0539,0.0554,0.0554,0.0517,0.0511,0.0473,0.0426,0.0366,0.0272,0.0199,0.0154,0.0099,0.0031,-0.0087,-0.0148,-0.007,-0.0261,-0.0267,-0.0216,-0.0251,-0.0151,-0.0294,-0.0298,-0.03,-0.0302,0,0.0543,0.0556,0.0584,0.0573,0.057,0.058,0.0529,0.0516,0.0435,0.0393,0.0301,0.0219,0.0103,0.0075,-0.012,-0.0071,-0.0168,-0.0243,-0.0251,-0.0249,-0.0251,-0.0285,-0.0328,-0.0326,-0.0324,-0.0323,-0.0321,0,0.0542,0.0573,0.0591,0.0592,0.0587,0.0589,0.0577,0.0521,0.0494,0.0399,0.0354,0.0212,0.0123,-0.0014,-0.0169,-0.0156,-0.0373,-0.0374,-0.0428,-0.0426,-0.045,-0.0444,-0.0513,-0.0513,-0.0513,-0.0512,-0.0512,0,0.0546,0.0554,0.0599,0.0601,0.061,0.0605,0.0591,0.0554,0.0499,0.0457,0.0358,0.0281,0.0094,-0.0047,-0.0178,-0.0346,-0.0387,-0.044,-0.0467,-0.0416,-0.0405,-0.0459,-0.0451,-0.0518,-0.0516,-0.0515,-0.0515,0,0.0512,0.0548,0.0566,0.0596,0.0608,0.0608,0.0614,0.0597,0.0549,0.0487,0.0457,0.0308,0.013,-0.0046,-0.0278,-0.0354,-0.0513,-0.0562,-0.0491,-0.0509,-0.0516,-0.0503,-0.0639,-0.0639,-0.0639,-0.0639,-0.0639,0,0.0485,0.0502,0.0559,0.0584,0.0601,0.0619,0.0629,0.0612,0.0599,0.0502,0.0467,0.0296,0.0182,-0.011,-0.0286,-0.0525,-0.0548,-0.0616,-0.0571,-0.0521,-0.0533,-0.052,-0.0508,-0.0639,-0.0639,-0.0638,-0.0638,0,0.0437,0.0475,0.0501,0.0555,0.0592,0.0622,0.0643,0.0637,0.0608,0.0572,0.0462,0.0313,0.0112,-0.0103,-0.0288,-0.0456,-0.056,-0.0615,-0.0616,-0.0575,-0.0521,-0.0531,-0.0519,-0.0638,-0.0638,-0.0638,-0.0638,0,0.0402,0.0422,0.0482,0.052,0.0574,0.0614,0.0626,0.0623,0.0608,0.0529,0.0489,0.0286,0.0166,-0.007,-0.0243,-0.0398,-0.0429,-0.045,-0.046,-0.0462,-0.0355,-0.0258,-0.033,0,0,0,0,0,0.0368,0.0404,0.0443,0.0501,0.0554,0.0585,0.063,0.0643,0.0631,0.0564,0.0533,0.0355,0.01,-0.0022,-0.0173,-0.0247,-0.0462,-0.0425,-0.0491,-0.0635,-0.0636,-0.0535,0,0,0,0,0,0,0.0351,0.0398,0.0432,0.0481,0.0513,0.057,0.0603,0.0599,0.0569,0.0536,0.0395,0.0339,0.0078,0.0172,-0.0177,-0.0225,-0.0277,-0.0548,-0.055,-0.0635,-0.0636,-0.0636,-0.0532,0,0,0,0,0]}]]